Simultaneous Nadir Overpasses (SNOs) Predictions

Prediction of SNOs between GOES-15 and NOAA-20 Satellite Orbit:

Table of predicted SNOs for the next 14.0 days since TLE Epoch: 11/20/2020
Index Date Time (GOES-15) GOES-15 Lat,Lon NOAA-20 Lat,Lon Distance(km) Time Diff (sec)
1 11/22/2020 10:01:28 -0.06,-127.66 0.19,-128.86 136.12 80
2 11/23/2020 09:40:03 -0.08,-127.70 -0.81,-124.33 383.82 80
3 11/24/2020 22:04:41 0.05,-127.74 -0.35,-129.64 215.60 80
4 11/25/2020 21:43:16 0.06,-127.77 0.65,-125.10 303.88 80
5 11/27/2020 10:07:44 -0.03,-127.84 0.54,-130.37 289.16 80
6 11/28/2020 09:46:21 -0.05,-127.87 -0.52,-125.85 230.38 80
7 11/29/2020 22:10:57 0.01,-127.91 -0.69,-131.15 369.32 80
8 11/30/2020 21:49:33 0.03,-127.93 0.31,-126.62 149.40 80
9 12/02/2020 10:14:01 0.01,-127.98 0.88,-131.89 445.41 80
10 12/03/2020 09:52:37 -0.01,-128.01 -0.13,-127.36 73.24 80
